DW9852 Weather Reports


Display with metric or nautical units.
time (UTC)temp
F
wind
direction
speed
MPH
gust
MPH
rain 1hr
in
rain 24hr
in
rain mn
in
humidity
%
barometer
mb
20260906161557 87 0 0.0 5.0 0.00 0.00 0.00 65 1017.0
20260906160056 87 0 2.0 4.0 0.00 0.00 0.00 66 1017.0
20260906154554 86 171 0.0 2.0 0.00 0.00 0.00 66 1016.8
20260906153054 85 83 0.0 1.0 0.00 0.00 0.00 68 1016.7
20260906151548 86 250 0.0 2.0 0.00 0.00 0.00 67 1016.7
20260906150059 85 0 0.0 3.0 0.00 0.00 0.00 68 1016.8
20260906144602 0 0.0 0.0 0.00 0.00 0.00 1016.8
20260906143053 0 0.0 0.0 0.00 0.00 0.00 1016.7
20260906141606 0 0.0 0.0 0.00 0.00 0.00 1016.7
20260906140058 0 0.0 0.0 0.00 0.00 0.00 1016.5
20260906134601 0 0.0 0.0 0.00 0.00 0.00 1016.3
20260906133058 0 0.0 0.0 0.00 0.00 0.00 1016.1
20260906131549 0 0.0 0.0 0.00 0.00 0.00 1016.2
20260906130059 0 0.0 0.0 0.00 0.00 0.00 1015.8
20260906124554 0 0.0 0.0 0.00 0.00 0.00 1015.6
20260906123054 0 0.0 0.0 0.00 0.00 0.00 1015.3
20260906121556 0 0.0 0.0 0.00 0.00 0.00 1015.2
20260906120050 0 0.0 0.0 0.00 0.00 0.00 1015.0
20260906114607 0 0.0 0.0 0.00 0.00 0.00 1015.0
20260906113056 0 0.0 0.0 0.00 0.00 0.00 1014.9
20260906111548 0 0.0 0.0 0.00 0.00 0.00 1014.6
20260906110049 0 0.0 0.0 0.00 0.00 0.00 1014.7
20260906104555 0 0.0 0.0 0.00 0.00 0.00 1014.4
20260906103053 0 0.0 0.0 0.00 0.00 0.00 1014.5
20260906101552 0 0.0 0.0 0.00 0.00 0.00 1013.8
20260906100049 0 0.0 0.0 0.00 0.00 0.00 1013.7
20260906094554 0 0.0 0.0 0.00 0.00 0.00 1013.9
20260906093054 0 0.0 0.0 0.00 0.00 0.00 1014.0
20260906091550 0 0.0 0.0 0.00 0.00 0.00 1013.9
20260906090108 0 0.0 0.0 0.00 0.00 0.00 86 1013.9
20260906084556 78 0 0.0 0.0 0.00 0.00 0.00 85 1014.1
20260906083052 79 0 0.0 0.0 0.00 0.00 0.00 85 1014.0
20260906081557 80 0 0.0 0.0 0.00 0.00 0.00 83 1014.2
20260906080050 81 0 0.0 1.0 0.00 0.00 0.00 82 1014.5
20260906074607 80 0 0.0 0.0 0.00 0.00 0.00 82 1014.7
20260906073053 81 0 0.0 1.0 0.00 0.00 0.00 81 1015.0
20260906071555 81 0 0.0 1.0 0.00 0.00 0.00 81 1015.3
20260906070051 81 146 0.0 1.0 0.00 0.00 0.00 81 1015.5
20260906064558 81 143 0.0 3.0 0.00 0.00 0.00 79 1015.5
20260906063055 82 0 0.0 6.0 0.00 0.00 0.00 77 1015.7
20260906061559 82 0 1.0 4.0 0.00 0.00 0.00 76 1015.5
20260906060052 82 129 0.0 4.0 0.00 0.00 0.00 74 1015.7
20260906054549 82 83 0.0 4.0 0.00 0.00 0.00 73 1015.7
20260906053053 83 0 1.0 7.0 0.00 0.00 0.00 72 1015.6
20260906051600 83 141 1.0 10.0 0.00 0.00 0.00 70 1015.6
20260906050053 84 192 1.0 9.0 0.00 0.00 0.00 69 1015.5
20260906044546 84 253 0.0 4.0 0.00 0.00 0.00 69 1015.7
20260906043052 85 164 1.0 7.0 0.00 0.00 0.00 68 1015.7
20260906041553 85 79 2.0 7.0 0.00 0.00 0.00 67 1015.7
20260906040051 85 68 2.0 6.0 0.00 0.00 0.00 66 1015.7
20260906034547 86 87 2.0 8.0 0.00 0.00 0.00 66 1015.4
20260906033054 86 154 2.0 12.0 0.00 0.00 0.00 65 1015.1
20260906031558 87 91 3.0 11.0 0.00 0.00 0.00 64 1015.0
20260906030050 88 41 2.0 12.0 0.00 0.00 0.00 62 1014.6
20260906024554 88 84 2.0 9.0 0.00 0.00 0.00 61 1014.2
20260906023053 89 205 4.0 11.0 0.00 0.00 0.00 58 1013.8
20260906021550 91 0 1.0 5.0 0.00 0.00 0.00 50 1013.4
20260906020056 91 107 2.0 5.0 0.00 0.00 0.00 46 1012.9
20260906014555 91 123 0.0 2.0 0.00 0.00 0.00 47 1012.6
20260906013053 91 0 0.0 3.0 0.00 0.00 0.00 47 1012.4
20260906011551 92 0 0.0 0.0 0.00 0.00 0.00 46 1012.3
20260906010048 93 0 0.0 3.0 0.00 0.00 0.00 45 1012.3
20260906004552 93 0 0.0 0.0 0.00 0.00 0.00 44 1012.2
20260906003049 93 0 0.0 4.0 0.00 0.00 0.00 44 1012.2
20260906001548 94 128 1.0 4.0 0.00 0.00 0.00 45 1012.1
20260906000057 94 67 1.0 5.0 0.00 0.00 0.00 46 1012.0
20260905234557 94 54 1.0 8.0 0.00 0.00 0.00 45 1012.1
20260905233051 95 65 2.0 11.0 0.00 0.00 0.00 46 1012.2
20260905231548 97 0 0.0 7.0 0.00 0.00 0.00 48 1012.2
20260905230055 97 0 1.0 5.0 0.00 0.00 0.00 46 1012.0
20260905224603 97 164 2.0 6.0 0.00 0.00 0.00 45 1012.1
20260905223049 96 39 2.0 8.0 0.00 0.00 0.00 43 1012.2
20260905221603 96 5 2.0 4.0 0.00 0.00 0.00 44 1012.3
20260905220105 95 0 1.0 7.0 0.00 0.00 0.00 43 1012.2
20260905214549 96 112 0.0 6.0 0.00 0.00 0.00 46 1012.4
20260905213059 95 0 1.0 7.0 0.00 0.00 0.00 53 1012.5
20260905211617 94 131 2.0 7.0 0.00 0.00 0.00 53 1012.8
20260905210117 96 15 0.0 6.0 0.00 0.00 0.00 50 1012.8
20260905204556 95 0 0.0 9.0 0.00 0.00 0.00 50 1013.0
20260905203116 94 83 0.0 4.0 0.00 0.00 0.00 52 1013.3
20260905201553 92 59 2.0 7.0 0.00 0.00 0.00 57 1013.7
20260905200104 92 0 0.0 3.0 0.00 0.00 0.00 59 1014.0
20260905194558 91 84 1.0 5.0 0.00 0.00 0.00 58 1014.4
20260905193053 91 0 0.0 4.0 0.00 0.00 0.00 58 1014.5
20260905191551 93 205 2.0 5.0 0.00 0.00 0.00 58 1015.0
20260905190049 92 0 0.0 6.0 0.00 0.00 0.00 60 1015.1
20260905184559 92 114 3.0 8.0 0.00 0.00 0.00 59 1015.4
20260905183057 91 205 2.0 8.0 0.00 0.00 0.00 61 1015.6
20260905181604 91 259 3.0 9.0 0.00 0.00 0.00 62 1015.9
20260905180048 90 88 3.0 7.0 0.00 0.00 0.00 65 1016.0
20260905174555 89 0 3.0 9.0 0.00 0.00 0.00 68 1016.2
20260905173051 89 288 0.0 7.0 0.00 0.00 0.00 68 1016.3
20260905171550 88 191 2.0 6.0 0.00 0.00 0.00 73 1016.7
20260905170050 88 139 3.0 5.0 0.00 0.00 0.00 71 1016.9
20260905164545 87 0 2.0 9.0 0.00 0.00 0.00 71 1016.9
20260905163054 87 122 3.0 7.0 0.00 0.00 0.00 75 1017.1